When you browse on this site, cookies collect data to enhance your experience and personalize the content and advertising you see.
Visit our Privacy Policy to learn more. By continuing to use the site, you agree to this use of cookies and data.
  • en France
  • Liste des pays
  • À 7 jours
  • Température de l'eau
  • Carte satellitaire
  • Carte météo
  • Widgets météo
  • user-avatar
    Se connecter

    Météo par heure à Cairns

    Ce jour, 19 Avril, Vendredi

    Heure Température Précipitation Vent Pression Humidité
    00:00 +23°C° 0.1 mm 4 m/s 761 mmHg 90%
    01:00 +23°C° 0.1 mm 4 m/s 761 mmHg 90%
    02:00 +23°C° 0.1 mm 4 m/s 761 mmHg 90%
    03:00 +23°C° 0.1 mm 4 m/s 760 mmHg 91%
    04:00 +22°C° 0.1 mm 4 m/s 760 mmHg 91%
    05:00 +23°C° 0.1 mm 4 m/s 760 mmHg 91%
    06:00 +23°C° 0.1 mm 4 m/s 760 mmHg 91%
    07:00 +23°C° 0.1 mm 4 m/s 760 mmHg 91%
    08:00 +25°C° 0.1 mm 4 m/s 761 mmHg 84%
    09:00 +27°C° 0.1 mm 5 m/s 761 mmHg 77%
    10:00 +29°C° 0.1 mm 5 m/s 761 mmHg 70%
    11:00 +29°C° 0.1 mm 5 m/s 760 mmHg 69%
    12:00 +30°C° 0.1 mm 5 m/s 760 mmHg 67%
    13:00 +30°C° 0.1 mm 5 m/s 760 mmHg 66%
    14:00 +30°C° 0.2 mm 5 m/s 759 mmHg 68%
    15:00 +29°C° 0.2 mm 5 m/s 759 mmHg 69%
    16:00 +29°C° 0.2 mm 5 m/s 759 mmHg 70%
    17:00 +28°C° 0 mm 5 m/s 759 mmHg 76%
    18:00 +26°C° 0 mm 5 m/s 759 mmHg 81%
    19:00 +25°C° 0 mm 5 m/s 760 mmHg 87%
    20:00 +25°C° 0 mm 5 m/s 760 mmHg 88%
    21:00 +25°C° 0 mm 5 m/s 760 mmHg 89%
    22:00 +23°C° 0 mm 5 m/s 760 mmHg 89%
    23:00 +23°C° 0.1 mm 4 m/s 760 mmHg 91%

    Demain, 20 Avril, Samedi

    Heure Température Précipitation Vent Pression Humidité
    00:00 +23°C° 0.1 mm 4 m/s 760 mmHg 92%
    01:00 +23°C° 0.1 mm 4 m/s 759 mmHg 93%
    02:00 +23°C° 0.1 mm 4 m/s 759 mmHg 93%
    03:00 +23°C° 0.1 mm 5 m/s 759 mmHg 93%
    04:00 +23°C° 0.1 mm 5 m/s 759 mmHg 93%
    05:00 +23°C° 0 mm 5 m/s 759 mmHg 93%
    06:00 +23°C° 0 mm 5 m/s 759 mmHg 92%
    07:00 +23°C° 0 mm 5 m/s 759 mmHg 92%
    08:00 +26°C° 0 mm 5 m/s 760 mmHg 85%
    09:00 +28°C° 0 mm 5 m/s 760 mmHg 77%
    10:00 +29°C° 0 mm 5 m/s 760 mmHg 70%
    11:00 +30°C° 0 mm 5 m/s 759 mmHg 66%
    12:00 +32°C° 0 mm 5 m/s 759 mmHg 62%
    13:00 +33°C° 0 mm 5 m/s 758 mmHg 58%
    14:00 +32°C° 0 mm 5 m/s 758 mmHg 60%
    15:00 +32°C° 0 mm 5 m/s 757 mmHg 62%
    16:00 +32°C° 0 mm 5 m/s 757 mmHg 63%
    17:00 +29°C° 0 mm 5 m/s 757 mmHg 71%
    18:00 +27°C° 0 mm 5 m/s 757 mmHg 79%
    19:00 +26°C° 0 mm 5 m/s 758 mmHg 87%
    20:00 +25°C° 0 mm 4 m/s 758 mmHg 89%
    21:00 +25°C° 0 mm 4 m/s 759 mmHg 90%
    22:00 +25°C° 0 mm 4 m/s 759 mmHg 92%
    23:00 +25°C° 0 mm 4 m/s 759 mmHg 92%

    Après-demain, 21 Avril, Dimanche

    Heure Température Précipitation Vent Pression Humidité
    00:00 +25°C° 0 mm 4 m/s 759 mmHg 92%
    01:00 +25°C° 0 mm 4 m/s 758 mmHg 91%
    02:00 +25°C° 0 mm 4 m/s 758 mmHg 91%
    03:00 +23°C° 0 mm 4 m/s 758 mmHg 91%
    04:00 +23°C° 0 mm 4 m/s 757 mmHg 91%
    05:00 +23°C° 0 mm 4 m/s 758 mmHg 90%
    06:00 +25°C° 0 mm 4 m/s 758 mmHg 89%
    07:00 +25°C° 0 mm 4 m/s 758 mmHg 87%
    08:00 +26°C° 0 mm 5 m/s 758 mmHg 82%
    09:00 +28°C° 0 mm 5 m/s 759 mmHg 77%
    10:00 +30°C° 0 mm 5 m/s 759 mmHg 71%
    11:00 +30°C° 0 mm 5 m/s 758 mmHg 69%
    12:00 +32°C° 0 mm 5 m/s 758 mmHg 67%
    13:00 +32°C° 0 mm 5 m/s 757 mmHg 65%
    14:00 +32°C° 0 mm 5 m/s 757 mmHg 66%
    15:00 +32°C° 0 mm 5 m/s 757 mmHg 67%
    16:00 +32°C° 0 mm 5 m/s 756 mmHg 68%
    17:00 +29°C° 0 mm 5 m/s 757 mmHg 75%
    18:00 +28°C° 0 mm 4 m/s 757 mmHg 82%
    19:00 +26°C° 0 mm 4 m/s 758 mmHg 89%
    20:00 +26°C° 0 mm 4 m/s 758 mmHg 90%
    21:00 +26°C° 0 mm 4 m/s 759 mmHg 91%
    22:00 +25°C° 0 mm 4 m/s 759 mmHg 92%
    23:00 +25°C° 0 mm 4 m/s 759 mmHg 93%

    22 Avril, Lundi

    Heure Température Précipitation Vent Pression Humidité
    00:00 +25°C° 0 mm 4 m/s 758 mmHg 93%
    01:00 +25°C° 0 mm 3 m/s 758 mmHg 93%
    02:00 +25°C° 0.1 mm 3 m/s 758 mmHg 94%
    03:00 +25°C° 0.1 mm 4 m/s 758 mmHg 94%
    04:00 +25°C° 0.1 mm 4 m/s 757 mmHg 94%
    05:00 +25°C° 0 mm 4 m/s 758 mmHg 94%
    06:00 +25°C° 0 mm 4 m/s 758 mmHg 93%
    07:00 +25°C° 0 mm 4 m/s 759 mmHg 93%
    08:00 +27°C° 0 mm 4 m/s 759 mmHg 86%
    09:00 +28°C° 0 mm 4 m/s 759 mmHg 79%
    10:00 +30°C° 0 mm 4 m/s 760 mmHg 72%
    11:00 +30°C° 0 mm 4 m/s 759 mmHg 70%
    12:00 +32°C° 0 mm 5 m/s 758 mmHg 69%
    13:00 +32°C° 0 mm 5 m/s 758 mmHg 67%
    14:00 +32°C° 0 mm 5 m/s 758 mmHg 68%
    15:00 +32°C° 0 mm 5 m/s 757 mmHg 69%
    16:00 +30°C° 0 mm 5 m/s 757 mmHg 69%
    17:00 +29°C° 0 mm 4 m/s 758 mmHg 76%
    18:00 +27°C° 0 mm 4 m/s 758 mmHg 84%
    19:00 +26°C° 0 mm 4 m/s 759 mmHg 91%
    20:00 +26°C° 0.1 mm 4 m/s 759 mmHg 92%
    21:00 +26°C° 0.1 mm 4 m/s 760 mmHg 92%
    22:00 +26°C° 0.1 mm 4 m/s 760 mmHg 93%
    23:00 +26°C° 0.1 mm 4 m/s 760 mmHg 94%

    23 Avril, Mardi

    Heure Température Précipitation Vent Pression Humidité
    00:00 +26°C° 0.1 mm 4 m/s 759 mmHg 94%
    01:00 +26°C° 0.1 mm 4 m/s 759 mmHg 94%
    02:00 +26°C° 0.2 mm 4 m/s 759 mmHg 95%
    03:00 +25°C° 0.2 mm 4 m/s 759 mmHg 95%
    04:00 +25°C° 0.2 mm 4 m/s 759 mmHg 96%
    05:00 +25°C° 0.1 mm 4 m/s 759 mmHg 95%
    06:00 +25°C° 0.1 mm 4 m/s 759 mmHg 95%
    07:00 +25°C° 0.1 mm 4 m/s 760 mmHg 94%
    08:00 +27°C° 0.1 mm 4 m/s 760 mmHg 88%
    09:00 +28°C° 0.1 mm 5 m/s 760 mmHg 81%
    10:00 +30°C° 0.1 mm 5 m/s 760 mmHg 74%
    11:00 +30°C° 0.1 mm 5 m/s 760 mmHg 72%
    12:00 +32°C° 0.1 mm 5 m/s 759 mmHg 70%
    13:00 +32°C° 0.1 mm 5 m/s 759 mmHg 68%
    14:00 +32°C° 0.1 mm 5 m/s 759 mmHg 69%
    15:00 +30°C° 0.1 mm 5 m/s 758 mmHg 71%
    16:00 +30°C° 0.1 mm 5 m/s 758 mmHg 72%
    17:00 +29°C° 0 mm 4 m/s 759 mmHg 78%
    18:00 +27°C° 0 mm 4 m/s 759 mmHg 85%
    19:00 +26°C° 0 mm 4 m/s 760 mmHg 91%
    20:00 +26°C° 0.1 mm 4 m/s 760 mmHg 92%
    21:00 +26°C° 0.1 mm 4 m/s 760 mmHg 92%
    22:00 +26°C° 0.1 mm 4 m/s 761 mmHg 93%
    23:00 +26°C° 0.1 mm 4 m/s 760 mmHg 94%

    24 Avril, Mercredi

    Heure Température Précipitation Vent Pression Humidité
    00:00 +26°C° 0.1 mm 4 m/s 760 mmHg 94%
    01:00 +26°C° 0.1 mm 4 m/s 759 mmHg 95%
    02:00 +26°C° 0.1 mm 4 m/s 759 mmHg 95%
    03:00 +26°C° 0.1 mm 4 m/s 759 mmHg 95%
    04:00 +26°C° 0.1 mm 4 m/s 759 mmHg 95%
    05:00 +26°C° 0.1 mm 4 m/s 759 mmHg 95%
    06:00 +26°C° 0.1 mm 4 m/s 760 mmHg 95%
    07:00 +26°C° 0.1 mm 4 m/s 760 mmHg 95%
    08:00 +27°C° 0.1 mm 4 m/s 760 mmHg 89%
    09:00 +28°C° 0.1 mm 5 m/s 760 mmHg 83%
    10:00 +29°C° 0.1 mm 5 m/s 760 mmHg 77%
    11:00 +30°C° 0.1 mm 5 m/s 760 mmHg 74%
    12:00 +32°C° 0.1 mm 5 m/s 759 mmHg 71%
    13:00 +32°C° 0.1 mm 5 m/s 759 mmHg 68%
    14:00 +32°C° 0 mm 5 m/s 758 mmHg 69%
    15:00 +32°C° 0 mm 5 m/s 758 mmHg 70%
    16:00 +32°C° 0 mm 5 m/s 758 mmHg 71%
    17:00 +29°C° 0 mm 4 m/s 758 mmHg 78%
    18:00 +28°C° 0 mm 4 m/s 759 mmHg 85%
    19:00 +26°C° 0 mm 4 m/s 759 mmHg 92%
    20:00 +26°C° 0 mm 4 m/s 760 mmHg 93%
    21:00 +26°C° 0 mm 4 m/s 760 mmHg 93%
    22:00 +26°C° 0 mm 3 m/s 760 mmHg 94%
    23:00 +26°C° 0 mm 3 m/s 760 mmHg 94%
    Voir plus